#timestamp,LO_Frequency,Hit,StdDev 
1710741615.2,286047002.7,N
1710741635.9,286047000.0,N
1710741655.7,286046999.8,N
1710741675.6,286047001.1,N
1710741695.4,286046998.2,N
1710741715.2,286046998.2,N
1710741735.1,286047000.9,N
1710741736.0,286047000.9,N
1710741755.8,286047000.8,N
1710741775.7,286046998.3,N
1710741795.5,286047000.4,N
1710741815.3,286046998.2,N
1710741835.2,286047000.7,N
1710741855.0,286047001.0,N
1710741855.9,286047001.0,N
1710741875.7,286046998.1,N
1710741895.6,286046998.6,N
1710741915.4,286047000.7,N
1710741935.3,286046999.7,N
1710741955.1,286047002.8,N
1710741956.0,286047002.8,N
1710741975.8,286047002.3,N
1710741995.7,286046999.8,N
1710742015.5,286047000.1,N
1710742035.3,286047002.0,N
1710742055.2,286047003.8,N
1710742075.0,286047003.5,N
1710742075.9,286047003.5,N
1710742095.8,286047001.6,N
1710742115.6,286047002.7,N
1710742135.4,286047000.3,N
1710742155.3,286046999.0,N
1710742175.1,286046999.5,N
1710742195.9,286046998.8,N
1710742215.7,286046998.6,N
1710742235.5,286046998.5,N
1710742255.4,286047000.0,N
1710742275.2,286047002.6,N
1710742295.0,286047003.9,N
1710742295.9,286047003.9,N
1710742315.8,286047001.3,N
1710742335.6,286047004.3,N
1710742355.5,286047001.9,N
1710742375.3,286047001.7,N
1710742395.1,286047003.9,N
1710742415.9,286047004.3,N
1710742435.7,286047003.1,N
1710742455.5,286047002.9,N
1710742475.4,286047003.7,N
1710742495.2,286047003.8,N
1710742515.1,286047003.9,N
1710742516.0,286047003.9,N
1710742535.8,286047003.5,N
1710742555.6,286047003.9,N
1710742575.5,286047005.5,N
1710742595.3,286047005.6,N
1710742615.1,286047005.8,N
1710742635.9,286047005.1,N
1710742655.7,286047005.6,N
1710742675.6,286047003.2,N
1710742695.4,286047003.7,N
1710742715.2,286047003.3,N
1710742735.1,286047003.3,N
1710742736.0,286047003.3,N
1710742755.8,286047005.3,N
1710742775.7,286047005.7,Y
1710742795.5,286047002.3,P
1710742815.3,286047000.5,N
1710742835.2,286046998.8,N
1710742855.0,286046998.9,N
1710742855.9,286046998.9,N
1710742875.7,286046998.3,N
1710742895.6,286046999.0,N
1710742915.4,286046998.6,N
1710742935.3,286047000.6,N
1710742955.1,286047000.3,N
1710742975.8,286047002.2,N
1710742995.7,286047000.1,N
1710743015.5,286047001.0,N
1710743035.4,286047000.4,N
1710743055.2,286047000.4,N
1710743075.0,286047002.7,N
1710743075.9,286047002.7,N
1710743095.8,286046999.7,N
1710743115.6,286047000.5,N
1710743135.5,286047000.2,N
1710743155.3,286047001.2,N
1710743175.1,286047001.2,N
1710743195.9,286047000.9,N
1710743215.7,286047001.2,N
1710743235.5,286047000.6,N
1710743255.4,286046998.2,N
1710743275.2,286047000.7,N
1710743295.1,286046999.8,N
1710743296.0,286046999.8,N
1710743315.8,286047000.1,N
1710743335.6,286047002.6,N
1710743355.5,286046999.9,N
1710743375.3,286046998.5,N
1710743395.1,286046998.3,N
1710743415.9,286046998.4,N
1710743435.7,286046998.3,N
1710743455.6,286046996.8,N
1710743475.4,286046996.6,N
1710743495.2,286046999.2,N
1710743515.1,286046999.6,N
1710743516.0,286046999.6,N
1710743535.8,286046997.0,N
1710743555.6,286046999.2,N
1710743575.5,286046999.3,N
1710743595.3,286046997.1,N
1710743615.2,286046996.8,N
1710743635.9,286046996.5,N
1710743655.7,286046999.1,N
1710743675.6,286046999.5,N
1710743695.4,286046998.3,N
1710743715.2,286046998.1,N
1710743735.1,286046998.1,N
1710743736.0,286046998.1,N
1710743755.8,286046998.7,N
1710743775.7,286046998.9,N
1710743795.5,286046998.8,N
1710743815.3,286046998.8,N
1710743835.2,286046998.2,N
1710743855.0,286047001.1,N
1710743855.9,286047001.1,N
1710743875.8,286047001.2,N
1710743895.6,286047000.7,N
1710743915.4,286047000.9,N
1710743935.3,286046999.5,N
1710743955.1,286046999.0,N
1710743975.9,286047000.6,N
1710743995.7,286047000.0,N
1710744015.5,286047002.7,N
1710744035.4,286047002.0,N
1710744055.2,286047004.4,N
1710744075.0,286047001.3,N
1710744076.0,286047001.3,N
1710744095.8,286047003.4,N
1710744115.6,286047003.6,N
1710744135.5,286047004.3,N
1710744155.3,286047001.9,N
1710744175.1,286047002.0,N
1710744195.9,286047000.1,N
1710744215.7,286046999.9,N
1710744235.6,286047000.2,N
1710744255.4,286047000.3,N
1710744275.2,286047000.8,N
1710744295.1,286047000.8,N
1710744296.0,286047000.8,N
1710744315.8,286047000.9,N
1710744335.6,286047001.2,N
1710744355.5,286047000.2,N
1710744375.3,286047002.5,N
1710744395.2,286047002.0,N
1710744415.9,286047002.7,N
1710744435.7,286047000.4,N
1710744455.6,286047002.3,N
1710744475.4,286047002.3,N
1710744495.2,286047001.0,N
1710744515.1,286047000.8,N
1710744516.0,286047000.8,N
1710744535.8,286047000.6,N
1710744555.7,286047000.5,N
1710744575.5,286046999.7,N
1710744595.3,286046999.8,N
1710744615.2,286047002.3,N
1710744635.0,286047002.4,N
1710744635.9,286047002.4,N
1710744655.8,286047001.3,N
1710744675.6,286047004.3,Y
1710744695.4,286047002.1,P
1710744715.3,286046999.9,N
1710744735.1,286047000.3,N
1710744755.8,286047001.2,N
1710744775.7,286046998.2,N
1710744795.5,286046998.4,N
1710744815.4,286046998.5,N
1710744835.2,286046998.2,N
1710744855.1,286046998.6,N
1710744856.0,286046998.6,N
1710744875.8,286046998.3,N
1710744895.6,286046998.6,N
1710744915.5,286047000.7,N
1710744935.3,286047000.8,N
1710744955.2,286046998.8,N
1710744975.0,286047000.6,N
1710744975.9,286047000.6,N
1710744995.7,286047000.9,N
1710745015.6,286047000.9,N
1710745035.4,286046998.5,N
1710745055.3,286047001.5,N
1710745075.1,286047002.7,N
1710745076.0,286047002.7,N
1710745095.8,286047002.2,N
1710745115.7,286047002.2,N
1710745135.5,286047002.6,N
1710745155.4,286047002.1,N
1710745175.2,286047002.8,N
1710745195.0,286047001.0,N
1710745195.9,286047001.0,N
